[[{"header":{"parameterUnit":"m.s-1","parameterCategory":2,"la1":30.2991,"la2":30.254,"lo1":-89.0895,"lo2":-89.0444,"dy":0.0017,"dx":0.0017,"nx":28,"ny":28,"refTime":"2026-01-06T03:00:00:Z","depth":"0","parameterNumber":2,"parameterNumberName":"U-component_of_CURRENTS"},"data":[0,0,0,0,0,0,0,0,0,0,0,0,0,0,0,0,0,0,0,0,0,0,0,0,0,0,0,0,0,0,0,0,0,0,0,0,0,0,0,0,0,0,0,0,0,0,0,0,0,0,0,0,0,0,0,0,0,0,0.4856,0.4857,0,0.4908,0.4908,0.4908,0.4921,0.4921,0.4921,0.4921,0.4897,0.4896,0.4896,0,0,0,0,0,0,0,0,0,0,0,0,0,0.4807,0.4807,0.4856,0.4857,0.4858,0.4908,0.4908,0.4908,0.4921,0.4921,0.4921,0.4921,0.4897,0.4896,0.4896,0,0,0,0,0,0,0,0,0,0,0,0,0,0.4836,0.4807,0.4856,0.4873,0.4876,0.4908,0.4908,0.4908,0.4921,0.4921,0.4921,0.4921,0.4897,0.4897,0.4896,0.4889,0,0,0.4893,0.4892,0,0,0,0,0,0,0,0,0.4835,0.4838,0.487,0.4872,0.4875,0.4911,0.4882,0.49,0.4921,0.49,0.4921,0.4921,0.4897,0.4896,0.4901,0.4888,0.4887,0.4892,0.4892,0.4891,0.4891,0,0,0,0,0,0,0,0.4833,0.4836,0.4873,0.4871,0.4874,0.4892,0.4895,0.4886,0.4893,0.4901,0.4903,0.4915,0.4898,0.4902,0.4901,0.4886,0.4892,0.4892,0.4891,0.4891,0.4892,0.4893,0,0,0,0,0,0,0.4832,0.4834,0.4871,0.4875,0.4859,0.4893,0.4896,0.4896,0.4895,0.4897,0.4915,0.4916,0.4904,0.4902,0.49,0.4901,0.4891,0.4891,0.489,0.4892,0.4893,0.4893,0,0,0,0,0,0,0.4831,0.4834,0.4869,0.4859,0.4865,0.4894,0.4894,0.4898,0.4903,0.4907,0.4906,0.4918,0.4904,0.4901,0.4895,0.49,0.489,0.4889,0.4891,0.4892,0.4893,0.4896,0,0,0,0,0,0,0.4829,0.4833,0.483,0.4859,0.4866,0.4889,0.4894,0.4899,0.4913,0.4914,0.4909,0.4907,0.4904,0.4897,0.4895,0.4898,0.4888,0.489,0.4891,0.4893,0.4896,0.4897,0.4899,0,0,0,0,0,0.4826,0.4822,0.4829,0.4835,0.4862,0.489,0.4895,0.4913,0.4913,0.4917,0.4914,0.4907,0.4903,0.4896,0.4893,0.4897,0.489,0.4891,0.4892,0.4895,0.4897,0.4899,0,0,0,0,0,0,0.4793,0.4824,0.4833,0.4835,0.4863,0.4894,0.49,0.4912,0.4914,0.491,0.4908,0.4906,0.4903,0.4902,0.4894,0.4904,0.4898,0.4899,0.4901,0.4903,0.4905,0.4894,0.4888,0,0,0,0,0,0.4787,0.4791,0.4827,0.4829,0.4843,0.487,0.4883,0.4896,0.4907,0.4909,0.4906,0.4905,0.4907,0.4906,0.4903,0.4903,0.4915,0.4907,0.4909,0.491,0.4901,0.4924,0.4927,0.4898,0.4898,0.4898,0,0,0.4772,0.4792,0.4792,0.4823,0.4842,0.4859,0.4876,0.4895,0.4905,0.4904,0.4902,0.4904,0.4908,0.4911,0.491,0.4909,0.493,0.4912,0.4913,0.4903,0.4926,0.4929,0.4931,0.4899,0.4899,0.4899,0,0,0.4754,0.4766,0.4769,0.4791,0.4828,0.4848,0.4854,0.4883,0.4892,0.4898,0.4902,0.4906,0.4905,0.4912,0.4916,0.4925,0.4936,0.4931,0.493,0.4953,0.4956,0.4958,0.4999,0.5004,0.4935,0.4935,0.4935,0,0.4735,0.4747,0.4774,0.4788,0.4803,0.4842,0.485,0.4869,0.489,0.4893,0.4896,0.4904,0.4905,0.4916,0.4924,0.4926,0.4949,0.492,0.4955,0.4957,0.4959,0.5,0.5006,0.4935,0.4935,0.4935,0.4935,0,0.4729,0.4738,0.4743,0.4771,0.4787,0.4803,0.4838,0.485,0.4864,0.4881,0.489,0.49,0.4907,0.4915,0.492,0.4939,0.4956,0.4951,0.4947,0.4962,0.5005,0.5011,0.4936,0.4936,0.4936,0.4935,0,0,0.4683,0.473,0.4728,0.474,0.478,0.4792,0.481,0.4838,0.4848,0.4868,0.4878,0.4891,0.4901,0.4907,0.4921,0.4941,0.4984,0.4954,0.4955,0.4989,0.5054,0.5016,0.5019,0.4988,0.4989,0.4989,0.5087,0,0.4671,0.4688,0.4713,0.4723,0.4737,0.4772,0.4787,0.4812,0.4835,0.4854,0.4878,0.4893,0.49,0.4911,0.4931,0.4966,0.4997,0.4959,0.5038,0.504,0.4999,0.5023,0.4744,0.4802,0.5093,0.5094,0.5094,0,0.4654,0.4671,0.4676,0.4709,0.4716,0.4723,0.4749,0.4772,0.4813,0.4829,0.4852,0.4878,0.4914,0.4918,0.4987,0.4966,0.5009,0.5038,0.5043,0.5003,0.5012,0.483,0.4802,0.4611,0.5104,0.5103,0.5103,0,0.461,0.4642,0.4644,0.4653,0.4695,0.4696,0.4721,0.4755,0.477,0.4819,0.4831,0.4879,0.4905,0.4959,0.5028,0.5013,0.5109,0.5097,0.5108,0.5108,0.4881,0.4858,0.4664,0.5148,0.5148,0.5148,0.5148,0,0.4585,0.4583,0.4623,0.4622,0.4614,0.4664,0.4662,0.4693,0.4739,0.4742,0.4817,0.483,0.4915,0.4981,0.5039,0.5097,0.5125,0.5109,0.5124,0.4878,0.4855,0.4689,0.4651,0.5152,0.5151,0.515,0.5149,0,0.452,0.4556,0.4554,0.4588,0.4589,0.4582,0.4611,0.4618,0.4681,0.4689,0.4708,0.4803,0.4886,0.4986,0.5086,0.5103,0.5012,0.519,0.491,0.4889,0.4692,0.4667,0.4463,0.4351,0.5198,0.5197,0.5197,0,0.4474,0.4473,0.4496,0.4488,0.4494,0.4498,0.4495,0.4561,0.4574,0.4656,0.4656,0.4763,0.4841,0.4999,0.5028,0.5133,0.4978,0.4919,0.4828,0.4636,0.462,0.4507,0.4419,0.4543,0.4537,0.4532,0.4529,0,0.4379,0.4399,0.4406,0.439,0.4381,0.4371,0.4385,0.4395,0.4471,0.4505,0.4586,0.4678,0.4812,0.4784,0.4902,0.4914,0.4629,0.4829,0.4667,0.4121,0.3942,0.3854,0.456,0.4487,0.4491,0.4494,0.4496,0.4498,0.4295,0.4275,0.4292,0.426,0.426,0.4243,0.4173,0.4228,0.4247,0.4227,0.4424,0.4437,0.4454,0.4591,0.4602,0.4319,0.4432,0.4118,0.4121,0.4039,0.3842,0.4485,0.4409,0.4413,0.4416,0.4419,0.4421,0,0.415,0.4159,0.415,0.4104,0.4031,0.408,0.407,0.3969,0.3924,0.4014,0.4055,0.3994,0.393,0.3912,0.3734,0.3596,0.3475,0.3447,0.3152,0.3123,0.3688,0.3564,0.3253,0.3253,0.3253,0.3254,0.3254,0.3254,0.4075,0.4011,0.4003,0.3852,0.382,0.3648,0.3598,0.3522,0.3535,0.3425,0.335,0.3387,0.3397,0.323,0.297,0.2905,0.2708,0.2583,0.2685,0.2992,0.3051,0.3107,0.2974,0.2545,0.2544,0.1909,0.1903,0.19]},{"header":{"parameterUnit":"m.s-1","parameterCategory":2,"la1":30.2991,"la2":30.254,"lo1":-89.0895,"lo2":-89.0444,"dy":0.0017,"dx":0.0017,"nx":28,"ny":28,"refTime":"2026-01-06T03:00:00:Z","depth":"0","parameterNumber":3,"parameterNumberName":"V-component_of_CURRENTS"},"data":[0,0,0,0,0,0,0,0,0,0,0,0,0,0,0,0,0,0,0,0,0,0,0,0,0,0,0,0,0,0,0,0,0,0,0,0,0,0,0,0,0,0,0,0,0,0,0,0,0,0,0,0,0,0,0,0,0,0,-0.0972,-0.0973,0,-0.1038,-0.1039,-0.104,-0.1079,-0.1079,-0.1079,-0.1079,-0.1126,-0.1127,-0.1128,0,0,0,0,0,0,0,0,0,0,0,0,0,-0.0903,-0.0904,-0.0972,-0.0973,-0.0974,-0.1038,-0.1039,-0.104,-0.1079,-0.1079,-0.1079,-0.1079,-0.1125,-0.1127,-0.1128,0,0,0,0,0,0,0,0,0,0,0,0,0,-0.0947,-0.0904,-0.0972,-0.1001,-0.1004,-0.1038,-0.1039,-0.104,-0.1079,-0.1079,-0.1079,-0.1079,-0.1125,-0.1127,-0.1128,-0.1133,0,0,-0.1133,-0.1134,0,0,0,0,0,0,0,0,-0.0945,-0.095,-0.0996,-0.0999,-0.1003,-0.1051,-0.1032,-0.107,-0.1079,-0.105,-0.1079,-0.108,-0.1099,-0.1102,-0.1114,-0.1135,-0.1137,-0.1133,-0.1134,-0.1135,-0.1135,0,0,0,0,0,0,0,-0.0941,-0.0947,-0.0998,-0.0997,-0.1001,-0.1019,-0.1025,-0.1039,-0.1072,-0.1053,-0.1056,-0.1063,-0.11,-0.1113,-0.1116,-0.1137,-0.1133,-0.1135,-0.1136,-0.1136,-0.1133,-0.1132,0,0,0,0,0,0,-0.0932,-0.0944,-0.0996,-0.1,-0.0974,-0.102,-0.1027,-0.1035,-0.1072,-0.1078,-0.1063,-0.1065,-0.111,-0.1114,-0.1117,-0.1101,-0.1135,-0.1136,-0.1137,-0.1134,-0.1133,-0.1132,0,0,0,0,0,0,-0.0931,-0.0936,-0.0993,-0.0974,-0.0982,-0.102,-0.1029,-0.1036,-0.1046,-0.108,-0.1086,-0.1066,-0.111,-0.1115,-0.112,-0.1104,-0.1137,-0.1138,-0.1136,-0.1134,-0.1132,-0.1084,0,0,0,0,0,0,-0.0928,-0.0935,-0.0936,-0.0973,-0.0983,-0.1008,-0.1029,-0.1037,-0.1051,-0.1054,-0.1085,-0.109,-0.1111,-0.1117,-0.1122,-0.1107,-0.114,-0.1137,-0.1135,-0.1133,-0.1087,-0.1081,-0.1075,0,0,0,0,0,-0.0926,-0.0927,-0.0936,-0.0942,-0.0984,-0.1008,-0.1014,-0.1043,-0.105,-0.1053,-0.1068,-0.1088,-0.1108,-0.1118,-0.1123,-0.1109,-0.1138,-0.1135,-0.1133,-0.1089,-0.1082,-0.1076,0,0,0,0,0,0,-0.0905,-0.0933,-0.0943,-0.0955,-0.0976,-0.1014,-0.1021,-0.1037,-0.1052,-0.1052,-0.108,-0.1086,-0.1084,-0.11,-0.111,-0.11,-0.1124,-0.1123,-0.1089,-0.1082,-0.1077,-0.1061,-0.1141,0,0,0,0,0,-0.0899,-0.0903,-0.0934,-0.0943,-0.0952,-0.0983,-0.0996,-0.1013,-0.1033,-0.1041,-0.106,-0.1073,-0.1078,-0.1083,-0.1095,-0.1092,-0.1086,-0.1083,-0.1078,-0.1073,-0.1062,-0.1046,-0.1038,-0.1124,-0.1124,-0.1124,0,0,-0.0895,-0.0909,-0.0913,-0.0938,-0.0957,-0.0961,-0.0991,-0.1006,-0.1004,-0.1042,-0.104,-0.1057,-0.1073,-0.1069,-0.1069,-0.1081,-0.104,-0.107,-0.1066,-0.1058,-0.1043,-0.1035,-0.1027,-0.1123,-0.1123,-0.1123,0,0,-0.0886,-0.0899,-0.0898,-0.0907,-0.0929,-0.0945,-0.0945,-0.0975,-0.0982,-0.0986,-0.1005,-0.1005,-0.1026,-0.1027,-0.1031,-0.0999,-0.1012,-0.1007,-0.0968,-0.0953,-0.0945,-0.0939,-0.09,-0.089,-0.1004,-0.1004,-0.1004,0,-0.0877,-0.0881,-0.0902,-0.09,-0.0897,-0.0932,-0.0922,-0.0936,-0.0962,-0.0952,-0.0977,-0.0979,-0.1001,-0.0977,-0.0973,-0.0986,-0.0976,-0.0994,-0.0945,-0.0939,-0.0933,-0.0895,-0.0885,-0.1001,-0.1001,-0.1002,-0.1002,0,-0.0867,-0.0864,-0.0863,-0.0864,-0.0864,-0.0864,-0.0877,-0.0876,-0.0888,-0.0897,-0.0883,-0.091,-0.0908,-0.0916,-0.0941,-0.0907,-0.091,-0.0941,-0.0962,-0.0922,-0.0883,-0.0874,-0.0997,-0.0998,-0.0999,-0.1,0,0,-0.0851,-0.0855,-0.085,-0.0833,-0.084,-0.0832,-0.0819,-0.081,-0.078,-0.0812,-0.0771,-0.08,-0.0816,-0.0821,-0.0846,-0.0841,-0.0796,-0.0877,-0.0877,-0.0836,-0.0743,-0.07,-0.0687,-0.0826,-0.0825,-0.0823,-0.0724,0,-0.0833,-0.0809,-0.0816,-0.078,-0.0763,-0.0769,-0.074,-0.073,-0.0733,-0.0703,-0.0726,-0.0707,-0.0779,-0.0769,-0.0779,-0.0794,-0.0773,-0.0818,-0.0789,-0.0787,-0.0755,-0.0675,-0.0591,-0.0492,-0.0715,-0.0714,-0.0713,0,-0.0812,-0.0793,-0.0753,-0.0711,-0.0701,-0.0678,-0.062,-0.0608,-0.0582,-0.0578,-0.0578,-0.0599,-0.0595,-0.0659,-0.0664,-0.0694,-0.0709,-0.0724,-0.0721,-0.0693,-0.0728,-0.0573,-0.0468,-0.0582,-0.0699,-0.07,-0.0701,0,-0.0765,-0.0743,-0.07,-0.0688,-0.065,-0.0616,-0.0597,-0.0562,-0.0523,-0.0498,-0.0456,-0.048,-0.0462,-0.0508,-0.0562,-0.0609,-0.0552,-0.0616,-0.0581,-0.0577,-0.0503,-0.0495,-0.0502,-0.0592,-0.0593,-0.0593,-0.0593,0,-0.0728,-0.069,-0.0672,-0.064,-0.0558,-0.0561,-0.0476,-0.0458,-0.0412,-0.0332,-0.0391,-0.0324,-0.0426,-0.0419,-0.0495,-0.0494,-0.0497,-0.0541,-0.0541,-0.0481,-0.0473,-0.0569,-0.0672,-0.0589,-0.059,-0.0591,-0.0591,0,-0.0663,-0.0666,-0.0601,-0.0554,-0.053,-0.0466,-0.0393,-0.0327,-0.0311,-0.0206,-0.0187,-0.0185,-0.0173,-0.0257,-0.0295,-0.0372,-0.0428,-0.0393,-0.0303,-0.0294,-0.0391,-0.0493,-0.0474,-0.0511,-0.0333,-0.0331,-0.0329,0,-0.061,-0.0581,-0.0517,-0.0454,-0.0423,-0.0346,-0.0273,-0.0261,-0.0196,-0.0104,-0.0033,0.0001,0.0086,0.0041,-0.0087,-0.0158,-0.0316,-0.016,-0.0241,-0.0351,-0.0466,-0.0537,-0.0576,-0.0111,-0.0108,-0.0106,-0.0104,0,-0.0491,-0.0484,-0.0426,-0.031,-0.0229,-0.0138,-0.0056,0.0004,0.0043,0.0154,0.0306,0.0384,0.0335,0.0332,0.019,0.0087,-0.0222,-0.0109,-0.0244,-0.0296,-0.035,-0.04,-0.0223,-0.0081,-0.0083,-0.0085,-0.0086,-0.0087,-0.0371,-0.031,-0.0238,-0.0119,-0.003,0.0095,0.0189,0.0279,0.0431,0.0616,0.0613,0.0824,0.0701,0.0539,0.034,0.0031,-0.0038,-0.0054,-0.0164,-0.0221,-0.0273,-0.0034,0.0105,0.0104,0.0103,0.0102,0.0102,0,-0.017,-0.0129,-0.0036,0.011,0.0241,0.0238,0.0372,0.048,0.0696,0.0896,0.107,0.1223,0.1049,0.0741,0.0319,0.0052,-0.0094,-0.0127,-0.0226,-0.0264,-0.0042,-0.0052,0.0085,0.0085,0.0085,0.0085,0.0085,0.0085,-0.0045,0.0081,0.0102,0.0348,0.0439,0.061,0.0692,0.0846,0.1011,0.1343,0.1556,0.1662,0.1463,0.0623,0.0044,-0.0117,-0.0358,-0.0363,-0.0524,-0.0411,-0.0414,-0.0416,-0.0449,-0.0398,-0.0398,-0.0662,-0.0665,-0.0668]}],[{"header":{"parameterUnit":"m.s-1","parameterCategory":2,"la1":30.2991,"la2":30.254,"lo1":-89.0895,"lo2":-89.0444,"dy":0.0017,"dx":0.0017,"nx":28,"ny":28,"refTime":"2026-01-06T03:00:00:Z","depth":"2","parameterNumber":2,"parameterNumberName":"U-component_of_CURRENTS"},"data":[0,0,0,0,0,0,0,0,0,0,0,0,0,0,0,0,0,0,0,0,0,0,0,0,0,0,0,0,0,0,0,0,0,0,0,0,0,0,0,0,0,0,0,0,0,0,0,0,0,0,0,0,0,0,0,0,0,0,0.2168,0.217,0,0.2275,0.2275,0.2276,0.2305,0.2305,0.2305,0.2306,0.2282,0.2281,0.228,0,0,0,0,0,0,0,0,0,0,0,0,0,0.2096,0.2096,0.2168,0.217,0.2172,0.2274,0.2275,0.2276,0.2305,0.2305,0.2306,0.2306,0.2282,0.2281,0.228,0,0,0,0,0,0,0,0,0,0,0,0,0,0.2149,0.2096,0.2167,0.2206,0.2211,0.2274,0.2275,0.2276,0.2305,0.2305,0.2306,0.2306,0.2282,0.2281,0.228,0.2266,0,0,0.2276,0.2275,0,0,0,0,0,0,0,0,0.2146,0.215,0.2198,0.2203,0.2209,0.2285,0.2242,0.2269,0.2305,0.226,0.2306,0.2306,0.2276,0.2275,0.2284,0.2264,0.2263,0.2276,0.2275,0.2274,0.2274,0,0,0,0,0,0,0,0.2142,0.2147,0.2201,0.22,0.2207,0.2255,0.2261,0.2247,0.2255,0.2264,0.2268,0.2294,0.2277,0.2285,0.2283,0.2263,0.2276,0.2275,0.2274,0.2273,0.2502,0.2508,0,0,0,0,0,0,0.2141,0.2142,0.2198,0.2205,0.2188,0.2256,0.2262,0.2253,0.2259,0.2264,0.2294,0.2296,0.2287,0.2285,0.2282,0.2421,0.2274,0.2273,0.2273,0.2495,0.2503,0.251,0,0,0,0,0,0,0.2138,0.2143,0.2194,0.2186,0.2197,0.2257,0.2246,0.2255,0.2309,0.2285,0.2285,0.2346,0.2287,0.2284,0.234,0.2414,0.2273,0.2272,0.2487,0.2497,0.2507,0.2598,0,0,0,0,0,0,0.2134,0.214,0.2152,0.2184,0.2197,0.2258,0.2247,0.2257,0.2327,0.233,0.2329,0.2324,0.2287,0.2343,0.2339,0.241,0.2271,0.2478,0.2491,0.2504,0.2587,0.261,0.2631,0,0,0,0,0,0.2131,0.2137,0.2151,0.216,0.2203,0.2261,0.2272,0.2311,0.2329,0.2359,0.2386,0.2327,0.2424,0.2346,0.234,0.2412,0.2472,0.2488,0.2503,0.2577,0.2606,0.263,0,0,0,0,0,0,0.2118,0.2142,0.2158,0.2173,0.2231,0.227,0.2306,0.2343,0.2388,0.24,0.2375,0.2374,0.2462,0.2447,0.2362,0.2535,0.2454,0.2469,0.2513,0.2539,0.2561,0.2571,0.2269,0,0,0,0,0,0.212,0.2124,0.2175,0.2194,0.2221,0.2276,0.2314,0.2348,0.2389,0.2412,0.2433,0.2473,0.2516,0.2533,0.2562,0.2623,0.2594,0.2691,0.2713,0.2731,0.2749,0.2776,0.2798,0.2561,0.2561,0.256,0,0,0.2136,0.214,0.2155,0.2193,0.2232,0.2295,0.2297,0.2366,0.2451,0.2398,0.2519,0.2538,0.2557,0.2643,0.2684,0.2635,0.2789,0.275,0.2764,0.2772,0.2794,0.2815,0.2835,0.2571,0.2569,0.2568,0,0,0.2146,0.2158,0.217,0.2217,0.2287,0.2333,0.2369,0.2451,0.2517,0.2626,0.2633,0.2703,0.2772,0.28,0.2819,0.2988,0.2906,0.3028,0.3124,0.3151,0.3168,0.3182,0.3162,0.3174,0.3033,0.3033,0.3033,0,0.2183,0.2175,0.2195,0.2225,0.2287,0.236,0.2428,0.2508,0.2617,0.2671,0.2689,0.284,0.2849,0.2943,0.3029,0.3027,0.3019,0.2995,0.3169,0.3183,0.3196,0.3172,0.3183,0.3039,0.3039,0.3038,0.3037,0,0.2197,0.2219,0.2235,0.2297,0.237,0.2437,0.2554,0.2651,0.2751,0.282,0.2966,0.301,0.309,0.3133,0.3132,0.3258,0.3214,0.3181,0.307,0.3223,0.3191,0.3201,0.3048,0.3046,0.3044,0.3043,0,0,0.2228,0.2246,0.2263,0.2291,0.2417,0.2474,0.2629,0.2766,0.2841,0.2995,0.3098,0.3242,0.3267,0.3301,0.3319,0.3368,0.3456,0.3339,0.3337,0.3264,0.3494,0.338,0.3379,0.3446,0.345,0.3452,0.3424,0,0.2255,0.2296,0.2322,0.2425,0.2469,0.258,0.2699,0.2835,0.2955,0.3069,0.3179,0.3275,0.3333,0.3366,0.3446,0.3442,0.3494,0.3466,0.3406,0.3404,0.3238,0.3392,0.3153,0.3103,0.3434,0.3435,0.3436,0,0.2264,0.2292,0.2382,0.245,0.2485,0.2581,0.2757,0.2864,0.3028,0.3113,0.3249,0.3316,0.3455,0.3465,0.3575,0.3556,0.3568,0.3562,0.3559,0.3428,0.3312,0.3016,0.3108,0.3452,0.3451,0.345,0.3449,0,0.2249,0.2326,0.2398,0.244,0.2556,0.264,0.2723,0.2885,0.2973,0.3137,0.3199,0.3358,0.3437,0.3511,0.3571,0.3578,0.3636,0.361,0.3517,0.3505,0.328,0.3243,0.3695,0.3695,0.3695,0.3695,0.3696,0,0.2237,0.2297,0.2398,0.2436,0.2549,0.2626,0.2747,0.2848,0.2974,0.3064,0.3218,0.3314,0.3465,0.3529,0.357,0.3575,0.3637,0.3565,0.3514,0.3308,0.3277,0.3563,0.3549,0.3694,0.3695,0.3695,0.3695,0,0.2219,0.2265,0.2349,0.2479,0.2537,0.2625,0.2763,0.2832,0.2938,0.3062,0.3121,0.3299,0.3387,0.3471,0.3546,0.3544,0.3547,0.3526,0.3259,0.318,0.3397,0.3389,0.343,0.3426,0.3423,0.342,0.3418,0,0.2231,0.2282,0.2403,0.2474,0.2551,0.2673,0.276,0.2849,0.2905,0.3053,0.3103,0.3232,0.3306,0.3346,0.3364,0.336,0.3467,0.3122,0.3116,0.3435,0.3382,0.3378,0.3374,0.2842,0.2835,0.283,0.2825,0,0.2294,0.2335,0.2373,0.2504,0.2611,0.2685,0.2784,0.2803,0.2896,0.2965,0.3021,0.3066,0.3148,0.3046,0.3051,0.3038,0.3105,0.301,0.3414,0.2953,0.2881,0.2828,0.2844,0.2776,0.2781,0.2785,0.2787,0.2789,0.2364,0.2399,0.2435,0.252,0.2614,0.2634,0.2614,0.2679,0.2689,0.2672,0.2819,0.2756,0.2805,0.268,0.2625,0.2618,0.2849,0.2739,0.2756,0.2779,0.2723,0.2651,0.2489,0.2492,0.2495,0.2497,0.2499,0,0.2408,0.2409,0.2477,0.2487,0.2479,0.2567,0.2577,0.2471,0.2385,0.2447,0.2418,0.2203,0.214,0.2203,0.2124,0.2153,0.215,0.2074,0.2047,0.2098,0.2144,0.2055,0.1644,0.1641,0.1638,0.1635,0,0,0.2418,0.2406,0.2354,0.2285,0.2324,0.2223,0.2169,0.2061,0.201,0.1885,0.1831,0.1925,0.2067,0.1762,0.1787,0.169,0.1866,0.1633,0.2325,0.234,0.238,0.2545,0.2469,0,0,0,0,0]},{"header":{"parameterUnit":"m.s-1","parameterCategory":2,"la1":30.2991,"la2":30.254,"lo1":-89.0895,"lo2":-89.0444,"dy":0.0017,"dx":0.0017,"nx":28,"ny":28,"refTime":"2026-01-06T03:00:00:Z","depth":"2","parameterNumber":3,"parameterNumberName":"V-component_of_CURRENTS"},"data":[0,0,0,0,0,0,0,0,0,0,0,0,0,0,0,0,0,0,0,0,0,0,0,0,0,0,0,0,0,0,0,0,0,0,0,0,0,0,0,0,0,0,0,0,0,0,0,0,0,0,0,0,0,0,0,0,0,0,0.0681,0.0681,0,0.06,0.0598,0.0597,0.049,0.0489,0.0487,0.0486,0.037,0.0368,0.0366,0,0,0,0,0,0,0,0,0,0,0,0,0,0.0712,0.0712,0.0681,0.0681,0.0681,0.06,0.0598,0.0596,0.049,0.0489,0.0487,0.0486,0.0371,0.0369,0.0366,0,0,0,0,0,0,0,0,0,0,0,0,0,0.0665,0.0712,0.0681,0.0623,0.0618,0.06,0.0598,0.0596,0.049,0.0488,0.0487,0.0485,0.0372,0.0369,0.0366,0.0379,0,0,0.0356,0.0355,0,0,0,0,0,0,0,0,0.0668,0.0663,0.0632,0.0627,0.0621,0.056,0.0567,0.0524,0.0491,0.0531,0.0486,0.0485,0.0437,0.0428,0.0406,0.0374,0.0369,0.0356,0.0354,0.0353,0.0352,0,0,0,0,0,0,0,0.0671,0.0666,0.0642,0.0632,0.0625,0.0591,0.0581,0.0558,0.0488,0.0527,0.0521,0.0524,0.0432,0.041,0.0403,0.0367,0.0356,0.0353,0.0351,0.035,0.0248,0.0247,0,0,0,0,0,0,0.0699,0.0669,0.0644,0.064,0.0649,0.0592,0.0581,0.0575,0.0488,0.0476,0.0526,0.052,0.0416,0.0407,0.0398,0.0371,0.0353,0.035,0.0348,0.0249,0.0248,0.0247,0,0,0,0,0,0,0.07,0.0698,0.0648,0.0659,0.0651,0.0594,0.0587,0.0574,0.054,0.0489,0.0474,0.0504,0.0414,0.0403,0.0365,0.0367,0.0349,0.0346,0.025,0.0249,0.0248,0.0342,0,0,0,0,0,0,0.0701,0.0698,0.0702,0.0661,0.0652,0.0643,0.0589,0.0574,0.0549,0.0539,0.0466,0.0454,0.0412,0.037,0.0362,0.0363,0.0343,0.0251,0.0249,0.0248,0.034,0.0344,0.0347,0,0,0,0,0,0.0702,0.0718,0.0702,0.07,0.0659,0.0645,0.0636,0.0585,0.055,0.0544,0.0486,0.0455,0.0353,0.0368,0.0359,0.0358,0.0252,0.025,0.0248,0.0338,0.0343,0.0347,0,0,0,0,0,0,0.0728,0.0709,0.069,0.0696,0.0677,0.0629,0.0625,0.0589,0.0538,0.0524,0.0459,0.0444,0.041,0.0368,0.0385,0.0318,0.0292,0.0289,0.0364,0.0368,0.0372,0.0424,0.0341,0,0,0,0,0,0.0742,0.0751,0.0721,0.0729,0.072,0.0671,0.0658,0.0626,0.0582,0.0556,0.0496,0.0435,0.0397,0.0371,0.0328,0.0305,0.029,0.0289,0.0293,0.0297,0.0329,0.0318,0.0326,0.0241,0.0241,0.0241,0,0,0.0751,0.0749,0.0748,0.0737,0.0712,0.0721,0.0656,0.0644,0.0648,0.0555,0.0521,0.0454,0.0394,0.036,0.034,0.0325,0.0306,0.0295,0.0299,0.0329,0.0317,0.0326,0.0334,0.024,0.024,0.024,0,0,0.0792,0.0774,0.0794,0.0791,0.0778,0.0755,0.0756,0.07,0.0667,0.0631,0.0566,0.0517,0.0428,0.0403,0.0378,0.0383,0.0332,0.0332,0.0395,0.0383,0.0392,0.0399,0.0374,0.0379,0.0329,0.0329,0.0329,0,0.0801,0.0833,0.0798,0.0827,0.084,0.0778,0.0808,0.0776,0.0711,0.0703,0.0629,0.0526,0.0466,0.0468,0.0441,0.0401,0.0365,0.0389,0.0395,0.0401,0.0408,0.038,0.0384,0.0333,0.0333,0.0332,0.0332,0,0.0858,0.0889,0.0904,0.0924,0.0929,0.0947,0.0916,0.0897,0.0835,0.0796,0.0752,0.0655,0.0598,0.0551,0.0488,0.0493,0.0443,0.0411,0.0399,0.0423,0.039,0.0393,0.034,0.0338,0.0337,0.0336,0,0,0.0864,0.0931,0.0935,0.0976,0.0987,0.0996,0.102,0.1025,0.1036,0.0939,0.0944,0.0843,0.0765,0.0731,0.0643,0.0609,0.0594,0.0511,0.0508,0.0515,0.0542,0.045,0.0443,0.0545,0.0546,0.0547,0.0497,0,0.0917,0.1009,0.1022,0.1103,0.1149,0.1132,0.1159,0.1155,0.1109,0.1088,0.1005,0.095,0.0843,0.0782,0.0748,0.0628,0.0605,0.0609,0.0494,0.0491,0.043,0.0445,0.0449,0.0399,0.05,0.05,0.05,0,0.0965,0.1035,0.1123,0.1217,0.1228,0.1254,0.1297,0.131,0.1292,0.1243,0.1198,0.1109,0.105,0.0935,0.0815,0.0806,0.0692,0.06,0.0596,0.0489,0.0404,0.039,0.0399,0.0504,0.0504,0.0503,0.0503,0,0.1006,0.1104,0.1184,0.1212,0.1291,0.1318,0.1342,0.1349,0.1343,0.1328,0.1296,0.1242,0.1163,0.1054,0.0841,0.0818,0.0694,0.0654,0.0486,0.0478,0.0453,0.044,0.0603,0.0603,0.0603,0.0603,0.0603,0,0.108,0.1139,0.1199,0.1252,0.1323,0.1356,0.1396,0.1416,0.1407,0.1405,0.1355,0.1324,0.1175,0.107,0.0905,0.0694,0.0754,0.0516,0.0468,0.0478,0.0468,0.0539,0.0532,0.0601,0.0601,0.0602,0.0602,0,0.1103,0.1157,0.1237,0.1321,0.1345,0.1376,0.1406,0.143,0.1422,0.1418,0.1402,0.1362,0.1232,0.108,0.0893,0.0751,0.0579,0.0492,0.0501,0.0454,0.0359,0.0358,0.0331,0.0328,0.0325,0.0322,0.032,0,0.1114,0.1163,0.1253,0.1278,0.1307,0.135,0.1386,0.1419,0.1438,0.1426,0.1434,0.1334,0.1276,0.1002,0.0755,0.0512,0.0498,0.0338,0.031,0.038,0.0336,0.0339,0.0341,0.031,0.0308,0.0307,0.0306,0,0.1117,0.113,0.1185,0.1253,0.1295,0.1356,0.141,0.1436,0.1467,0.1478,0.1488,0.145,0.1202,0.0973,0.0635,0.0463,0.0383,0.0293,0.039,0.0363,0.0352,0.0311,0.0316,0.0291,0.0293,0.0294,0.0294,0.0295,0.1047,0.1072,0.1134,0.1191,0.1255,0.1348,0.1397,0.1462,0.1516,0.1531,0.1521,0.1449,0.1233,0.0781,0.0514,0.0224,0.0248,0.0152,0.0161,0.0172,0.0162,0.0145,0.0044,0.0044,0.0044,0.0044,0.0044,0,0.0974,0.1024,0.1072,0.1157,0.1218,0.1285,0.1402,0.1444,0.1526,0.154,0.1536,0.1278,0.1036,0.0761,0.032,0.0078,0.0095,-0.0007,0.0087,0.0102,0.0115,0.0107,-0.0028,-0.0029,-0.003,-0.003,0,0,0.0934,0.0969,0.1026,0.1103,0.1159,0.1255,0.133,0.1415,0.1457,0.1464,0.1413,0.1377,0.1079,0.0754,0.0446,0.0199,0.0199,0.0141,0.0221,0.0382,0.0398,0.0223,0.0227,0,0,0,0,0]}],[{"header":{"parameterUnit":"m.s-1","parameterCategory":2,"la1":30.2991,"la2":30.254,"lo1":-89.0895,"lo2":-89.0444,"dy":0.0017,"dx":0.0017,"nx":28,"ny":28,"refTime":"2026-01-06T03:00:00:Z","depth":"4","parameterNumber":2,"parameterNumberName":"U-component_of_CURRENTS"},"data":[0,0,0,0,0,0,0,0,0,0,0,0,0,0,0,0,0,0,0,0,0,0,0,0,0,0,0,0,0,0,0,0,0,0,0,0,0,0,0,0,0,0,0,0,0,0,0,0,0,0,0,0,0,0,0,0,0,0,0.077,0.077,0,0.0804,0.0805,0.0805,0.0832,0.0832,0.0833,0.0833,0.0896,0.0897,0.0899,0,0,0,0,0,0,0,0,0,0,0,0,0,0.0717,0.0718,0.077,0.077,0.0771,0.0804,0.0805,0.0805,0.0832,0.0832,0.0833,0.0833,0.0896,0.0897,0.0899,0,0,0,0,0,0,0,0,0,0,0,0,0,0.0745,0.0718,0.077,0.0788,0.079,0.0804,0.0805,0.0805,0.0832,0.0832,0.0833,0.0833,0.0895,0.0897,0.0899,0.0907,0,0,0.0906,0.0907,0,0,0,0,0,0,0,0,0.0743,0.0747,0.0785,0.0787,0.0789,0.0814,0.0809,0.0841,0.0832,0.0817,0.0833,0.0833,0.0871,0.0875,0.0881,0.091,0.0913,0.0906,0.0908,0.0909,0.0909,0,0,0,0,0,0,0,0.0741,0.0746,0.0784,0.0785,0.0787,0.079,0.0795,0.0815,0.0842,0.0818,0.082,0.0823,0.0872,0.0879,0.0883,0.0914,0.0906,0.0908,0.091,0.0911,0.1013,0.1014,0,0,0,0,0,0,0.0736,0.0744,0.0783,0.0785,0.0766,0.0791,0.0796,0.0806,0.0842,0.0847,0.0822,0.0824,0.0875,0.088,0.0885,0.0986,0.0909,0.0911,0.0912,0.1011,0.1013,0.1015,0,0,0,0,0,0,0.0735,0.074,0.0782,0.0764,0.077,0.0791,0.0802,0.0806,0.0836,0.0844,0.0851,0.0851,0.0875,0.0882,0.0927,0.0985,0.0912,0.0914,0.101,0.1012,0.1014,0.113,0,0,0,0,0,0,0.0734,0.0739,0.0752,0.0764,0.0771,0.0799,0.0802,0.0807,0.0836,0.0839,0.087,0.0875,0.0876,0.0923,0.0929,0.0987,0.0916,0.1008,0.1011,0.1013,0.1124,0.1135,0.1145,0,0,0,0,0,0.0732,0.0747,0.0752,0.0757,0.0785,0.08,0.0804,0.082,0.0837,0.0849,0.0879,0.0875,0.0943,0.0927,0.0933,0.0993,0.1007,0.101,0.1013,0.1119,0.1133,0.1145,0,0,0,0,0,0,0.0731,0.0751,0.0757,0.0778,0.0791,0.0804,0.0822,0.0835,0.0869,0.0881,0.0895,0.0902,0.0961,0.0952,0.0933,0.1025,0.0974,0.0979,0.1053,0.1066,0.1076,0.1063,0.0917,0,0,0,0,0,0.0735,0.0757,0.0767,0.0788,0.0796,0.0815,0.0828,0.0839,0.0864,0.088,0.0902,0.0932,0.0974,0.1001,0.1017,0.1072,0.1056,0.111,0.1121,0.113,0.1121,0.1136,0.1147,0.1025,0.1025,0.1025,0,0,0.0739,0.0756,0.0767,0.079,0.0805,0.0823,0.0825,0.085,0.0876,0.0882,0.0934,0.0966,0.0993,0.1055,0.1081,0.1061,0.1164,0.1134,0.1142,0.1128,0.114,0.1152,0.1163,0.1027,0.1026,0.1026,0,0,0.0753,0.0776,0.0792,0.0807,0.0831,0.0843,0.0856,0.088,0.0903,0.0945,0.0974,0.104,0.1077,0.1127,0.1155,0.123,0.1213,0.1241,0.1299,0.1315,0.1325,0.1334,0.1364,0.1374,0.1255,0.1255,0.1255,0,0.0754,0.0783,0.0799,0.0817,0.084,0.0857,0.0882,0.0904,0.0941,0.0977,0.0967,0.1082,0.1111,0.1223,0.1256,0.1259,0.1259,0.1258,0.133,0.1338,0.1345,0.1373,0.1383,0.1261,0.126,0.126,0.1259,0,0.0771,0.0801,0.0816,0.085,0.0875,0.0901,0.0929,0.096,0.0992,0.1024,0.1121,0.1169,0.1246,0.1277,0.1294,0.1388,0.1371,0.1338,0.1302,0.1365,0.139,0.1399,0.127,0.1267,0.1266,0.1264,0,0,0.0759,0.0815,0.0823,0.0849,0.0899,0.0918,0.0971,0.1029,0.1081,0.1126,0.1211,0.1306,0.1352,0.1384,0.1436,0.1459,0.1536,0.1429,0.1427,0.1465,0.1584,0.152,0.1523,0.1515,0.1517,0.1518,0.1595,0,0.077,0.0809,0.0844,0.0897,0.0923,0.0967,0.1021,0.1079,0.1131,0.1209,0.129,0.1379,0.139,0.1456,0.1491,0.1516,0.1556,0.1518,0.151,0.151,0.145,0.1529,0.1522,0.1601,0.1603,0.1604,0.1605,0,0.0778,0.0809,0.0854,0.0934,0.0952,0.0994,0.1092,0.114,0.1251,0.1299,0.1406,0.1457,0.1567,0.1535,0.1615,0.159,0.1602,0.16,0.1602,0.1498,0.1459,0.1514,0.1619,0.1618,0.1617,0.1616,0.1615,0,0.0757,0.0823,0.0864,0.0886,0.0968,0.1017,0.1079,0.1181,0.1247,0.1373,0.1433,0.1547,0.1623,0.1638,0.1675,0.1643,0.1723,0.1675,0.1634,0.1631,0.1612,0.1601,0.1714,0.1714,0.1714,0.1714,0.1714,0,0.0751,0.0788,0.0862,0.0879,0.0956,0.1025,0.1125,0.1193,0.1322,0.141,0.1498,0.1573,0.1643,0.1704,0.1705,0.1712,0.1759,0.1655,0.1646,0.1664,0.1657,0.162,0.1608,0.1717,0.1716,0.1716,0.1715,0,0.0715,0.0759,0.0805,0.0898,0.0945,0.0999,0.1152,0.1211,0.1335,0.1453,0.15,0.162,0.1681,0.1747,0.1788,0.1753,0.1755,0.175,0.1803,0.1794,0.1643,0.1636,0.1688,0.1687,0.1685,0.1684,0.1683,0,0.0691,0.0715,0.0808,0.0845,0.0894,0.0998,0.1068,0.1211,0.1277,0.1459,0.15,0.1623,0.1689,0.1715,0.1764,0.1791,0.1769,0.177,0.1666,0.1655,0.1641,0.1636,0.1631,0.1681,0.1681,0.168,0.168,0,0.066,0.0698,0.0736,0.082,0.089,0.0955,0.1072,0.1118,0.1273,0.1395,0.1486,0.1545,0.1628,0.1664,0.1727,0.1725,0.1757,0.1755,0.1756,0.1658,0.1646,0.1633,0.163,0.1675,0.1676,0.1676,0.1676,0,0.0643,0.0661,0.0731,0.0804,0.0878,0.0912,0.0961,0.1057,0.1152,0.1351,0.1373,0.1499,0.1613,0.1633,0.1672,0.1693,0.1644,0.1577,0.1586,0.1592,0.1524,0.1492,0.1479,0,0,0,0,0,0.0644,0.0681,0.0725,0.0786,0.0844,0.0895,0.0977,0.1019,0.1165,0.1204,0.1302,0.1375,0.1456,0.1509,0.1508,0.1603,0.1633,0.1593,0.1556,0.1649,0.1654,0.1582,0,0,0,0,0,0,0.0651,0.0698,0.072,0.078,0.081,0.0865,0.09,0.0964,0.0998,0.1146,0.1189,0.1319,0.1399,0.1466,0.1497,0.1516,0.1468,0.1682,0.1679,0.1646,0.1651,0.1655,0.1583,0,0,0,0,0]},{"header":{"parameterUnit":"m.s-1","parameterCategory":2,"la1":30.2991,"la2":30.254,"lo1":-89.0895,"lo2":-89.0444,"dy":0.0017,"dx":0.0017,"nx":28,"ny":28,"refTime":"2026-01-06T03:00:00:Z","depth":"4","parameterNumber":3,"parameterNumberName":"V-component_of_CURRENTS"},"data":[0,0,0,0,0,0,0,0,0,0,0,0,0,0,0,0,0,0,0,0,0,0,0,0,0,0,0,0,0,0,0,0,0,0,0,0,0,0,0,0,0,0,0,0,0,0,0,0,0,0,0,0,0,0,0,0,0,0,0.0501,0.05,0,0.0483,0.0483,0.0483,0.0487,0.0487,0.0487,0.0487,0.0455,0.0454,0.0453,0,0,0,0,0,0,0,0,0,0,0,0,0,0.0509,0.0509,0.0501,0.05,0.05,0.0483,0.0483,0.0483,0.0487,0.0487,0.0487,0.0488,0.0455,0.0454,0.0453,0,0,0,0,0,0,0,0,0,0,0,0,0,0.0502,0.051,0.0501,0.0498,0.0498,0.0483,0.0483,0.0483,0.0487,0.0487,0.0487,0.0488,0.0456,0.0454,0.0453,0.0439,0,0,0.0448,0.0447,0,0,0,0,0,0,0,0,0.0502,0.0502,0.0499,0.0499,0.0498,0.0486,0.0474,0.0466,0.0487,0.0493,0.0487,0.0488,0.0462,0.046,0.046,0.0437,0.0436,0.0448,0.0447,0.0446,0.0446,0,0,0,0,0,0,0,0.0503,0.0502,0.0496,0.0499,0.0498,0.0488,0.0488,0.0472,0.0478,0.0493,0.0493,0.0487,0.0462,0.0461,0.0459,0.0435,0.0448,0.0447,0.0446,0.0445,0.0395,0.0395,0,0,0,0,0,0,0.0502,0.0503,0.0496,0.0495,0.0498,0.0488,0.0487,0.0491,0.0478,0.0476,0.0487,0.0487,0.0464,0.046,0.0458,0.0459,0.0446,0.0445,0.0444,0.0396,0.0395,0.0395,0,0,0,0,0,0,0.0503,0.0502,0.0497,0.0496,0.0495,0.0487,0.0491,0.049,0.0499,0.0474,0.0472,0.0497,0.0464,0.046,0.0451,0.0457,0.0444,0.0443,0.0396,0.0396,0.0395,0.0449,0,0,0,0,0,0,0.0503,0.0503,0.0512,0.0497,0.0495,0.0494,0.0491,0.049,0.0493,0.0494,0.0481,0.0478,0.0463,0.0453,0.0449,0.0455,0.0442,0.0397,0.0396,0.0395,0.0448,0.0451,0.0453,0,0,0,0,0,0.0504,0.0512,0.0512,0.0512,0.0505,0.0494,0.0492,0.0488,0.0494,0.0498,0.0489,0.0479,0.0445,0.0452,0.0447,0.0453,0.0397,0.0396,0.0395,0.0447,0.045,0.0453,0,0,0,0,0,0,0.0518,0.0513,0.0513,0.0519,0.051,0.0494,0.0498,0.0495,0.0493,0.0498,0.0479,0.0475,0.0466,0.0448,0.0456,0.0432,0.0417,0.0415,0.0458,0.046,0.0463,0.0467,0.044,0,0,0,0,0,0.0525,0.0536,0.052,0.0527,0.0524,0.0515,0.0513,0.0509,0.05,0.05,0.0489,0.0472,0.0456,0.0452,0.0431,0.0425,0.0388,0.0421,0.0423,0.0425,0.0423,0.0354,0.035,0.0392,0.0392,0.0392,0,0,0.0532,0.0531,0.0537,0.0532,0.0527,0.0527,0.0515,0.0515,0.0516,0.0496,0.0498,0.0481,0.0454,0.0445,0.0439,0.0435,0.0399,0.0424,0.0427,0.0423,0.0353,0.0349,0.0345,0.0391,0.0391,0.0392,0,0,0.0547,0.0551,0.0563,0.0558,0.0551,0.0544,0.0546,0.0534,0.0532,0.0526,0.051,0.0495,0.0476,0.0456,0.0445,0.0445,0.0411,0.0441,0.0464,0.0397,0.0393,0.0389,0.0363,0.0356,0.0447,0.0447,0.0447,0,0.0557,0.0571,0.0563,0.0568,0.0571,0.0554,0.0564,0.0553,0.054,0.0535,0.0532,0.0497,0.0477,0.0463,0.0465,0.0451,0.042,0.0462,0.0401,0.0396,0.0391,0.0364,0.0356,0.0449,0.0449,0.0449,0.0448,0,0.0573,0.0589,0.0595,0.0602,0.0601,0.0607,0.0589,0.0583,0.0579,0.0566,0.055,0.0522,0.0506,0.0493,0.0483,0.0447,0.044,0.041,0.0398,0.039,0.0363,0.0353,0.0453,0.0452,0.0451,0.0451,0,0,0.0592,0.0607,0.0613,0.0627,0.0624,0.0625,0.062,0.0611,0.0611,0.0588,0.0588,0.0554,0.0546,0.0531,0.0513,0.0458,0.0407,0.0429,0.0424,0.0411,0.0286,0.0284,0.0273,0.0365,0.0363,0.0362,0.029,0,0.0614,0.0643,0.0642,0.067,0.0683,0.0666,0.0669,0.0654,0.0636,0.0625,0.0588,0.0582,0.056,0.0564,0.0506,0.0424,0.038,0.0431,0.0287,0.0283,0.0289,0.0261,0.0356,0.0283,0.0281,0.0279,0.0278,0,0.0632,0.0654,0.0691,0.0714,0.072,0.0737,0.0738,0.0734,0.0702,0.0689,0.0667,0.0637,0.0587,0.0559,0.0422,0.0456,0.0382,0.0312,0.0307,0.0276,0.0262,0.0283,0.026,0.0261,0.0263,0.0264,0.0265,0,0.0655,0.0688,0.0727,0.0734,0.0752,0.0772,0.0786,0.0765,0.0771,0.0739,0.0738,0.0666,0.0647,0.0522,0.0404,0.0404,0.024,0.0217,0.015,0.0151,0.0153,0.0157,0.0109,0.011,0.011,0.011,0.011,0,0.0673,0.0704,0.0751,0.077,0.0826,0.0822,0.0865,0.0853,0.0851,0.086,0.0794,0.0781,0.063,0.0529,0.0407,0.0258,0.0243,0.0147,0.0119,0.0181,0.019,0.0147,0.0153,0.0107,0.0108,0.0108,0.0109,0,0.0679,0.071,0.0755,0.0806,0.0841,0.0877,0.0944,0.0959,0.0948,0.0957,0.0955,0.0863,0.0725,0.0576,0.0374,0.0277,0.012,0.0076,0.0183,0.0164,0.0079,0.0088,-0.0019,-0.002,-0.0021,-0.0022,-0.0022,0,0.0677,0.0708,0.0793,0.0839,0.0876,0.0945,0.0997,0.1019,0.1034,0.1002,0.1005,0.0895,0.0815,0.0544,0.0374,0.0143,0.0111,0.0038,0.0026,0.0076,0.006,0.007,0.008,-0.0023,-0.0024,-0.0024,-0.0024,0,0.0679,0.0719,0.0759,0.0862,0.094,0.1007,0.1082,0.1109,0.1113,0.1111,0.1037,0.0899,0.0752,0.0543,0.0376,0.0205,0.0077,0.0029,0.0029,0.0017,0.0069,0.0057,0.0067,-0.0027,-0.0026,-0.0026,-0.0026,0,0.0683,0.071,0.0782,0.0864,0.0961,0.1032,0.1079,0.1106,0.1127,0.1098,0.1074,0.091,0.0823,0.0576,0.0412,0.025,0.0199,0.0134,0.0128,0.0129,0.0186,0.0275,0.021,0,0,0,0,0,0.0678,0.0711,0.0782,0.0862,0.0954,0.1007,0.1109,0.1142,0.117,0.1125,0.1099,0.0959,0.0707,0.0599,0.0436,0.0387,0.0169,0.0188,0.0091,-0.0042,-0.0039,0.0001,0,0,0,0,0,0,0.0671,0.0739,0.0764,0.0845,0.0892,0.0987,0.1052,0.108,0.1058,0.1065,0.0942,0.0886,0.0653,0.0784,0.0414,0.0368,0.0278,0.0079,0.0075,-0.0044,-0.0041,-0.0039,0.0004,0,0,0,0,0]}]]